Regional Weather Roundup
Issued by NWS

Home | Current Version | Previous Version | Text Only | Print | Product List | Glossary On
Versions: 1 2 3 4 5 6 7 8 9 10 11 12 13 14 15 16 17 18 19 20 21 22 23 24 25 26 27 28
000
ASUS44 KJAN 260110
RWRMS

MISSISSIPPI HOURLY WEATHER ROUNDUP
NATIONAL WEATHER SERVICE JACKSON MS
800 PM CDT SUN JUN 25 2017

NOTE: "FAIR: INDICATES FEW OR NO CLOUDS BELOW 12,000 FEET WITH NO
SIGNIFICANT WEATHER AND/OR OBSTRUCTIONS TO VISIBILITY.

MSZ001>002-007>008-010>013-018>021-025>028-034>036-260200-
NORTHWEST MISSISSIPPI

CITY           SKY/WX    TMP DP  RH WIND       PRES   REMARKS
BATESVILLE     FAIR      76  61  59 CALM      30.18R
CLARKSDALE       N/A     79  66  65 NE3       30.17S
CLEVELAND      FAIR      76  69  80 N3        30.17R
GREENWOOD      CLEAR     75  67  76 CALM      30.16R
GREENVILLE     CLEAR     78  65  63 CALM      30.16S
OLIVE BRANCH   CLEAR    N/A N/A N/A CALM      30.18R
OXFORD           N/A     75  57  53 CALM      30.20R
TUNICA           N/A     73  61  64 N5        30.18R
WINONA         FAIR      74  65  72 CALM      30.17R
$$

MSZ003>006-009-014>017-022>024-029>033-037>039-260200-
NORTHEAST MISSISSIPPI

CITY           SKY/WX    TMP DP  RH WIND       PRES   REMARKS
COLUMBUS AFB   CLEAR     73  69  87 SW5       30.17R
CORINTH        FAIR      75  57  53 CALM      30.18R
STARKVILLE     FAIR      70  66  88 CALM      30.18R
TUPELO         CLEAR     76  55  48 N5        30.17R
$$

MSZ040-058-260200-
CENTRAL MISSISSIPPI

CITY           SKY/WX    TMP DP  RH WIND       PRES   REMARKS
JACKSON INTL   CLOUDY    74  63  68 E3        30.17S
JACKSON HAWKNS CLOUDY    75  60  59 CALM      30.18S
MADISON        FAIR      70  63  78 CALM      30.17F
MERIDIAN KEY   CLOUDY    71  66  84 N3        30.17R
MERIDIAN NAS   CLOUDY    73  61  65 N5        30.18R
RAYMOND        FAIR      73  66  78 CALM      30.16S
VICKSBURG VKS  CLEAR     75  66  73 NE5       30.14R
$$

MSZ059>079-260200-
SOUTH MISSISSIPPI

CITY           SKY/WX    TMP DP  RH WIND       PRES   REMARKS
COLUMBIA       FAIR      75  68  78 N5        30.17R
HATTIESBURG    PTCLDY    78  66  66 N6        30.13R
LAUREL         FAIR      75  59  56 N7        30.15R
MCCOMB         CLEAR     77  65  66 NE3       30.14R
NATCHEZ        CLOUDY    75  67  76 NE3       30.15S
PINE BELT      PTCLDY    77  66  69 N7        30.17R
$$

MSZ080>082-260200-
COASTAL MISSISSIPPI

CITY           SKY/WX    TMP DP  RH WIND       PRES   REMARKS
BAY ST LOUIS   PTCLDY    82  73  74 CALM      30.09R
BILOXI         CLOUDY    82  71  70 NE7       30.09R
PASCAGOULA     MOCLDY    82  71  69 N6        30.09R
GULFPORT       MOCLDY    83  70  64 N6        30.08S
$$

LAZ007>009-015>016-023>026-260200-
NORTHEAST LOUISIANA

CITY           SKY/WX    TMP DP  RH WIND       PRES   REMARKS
BASTROP        FAIR      72  70  94 CALM      30.17S
TALLULAH/VBURG CLOUDY    74  66  76 NE6       30.16S
VIDALIA        FAIR      76  67  74 NE6       30.13S
$$




USA.gov is the U.S. government's official web portal to all federal, state and local government web resources and services.